Starlink 31729

operational
NORAD ID: 59610 Int'l Des: 2024-080 Owner: SPXS Country: US Constellation: starlink
LEOCIRCULAR

Über Starlink 31729

Beschreibung wird geladen...

Live-Position

3D-Globus wird geladen...

Nächste Überflüge

Höhenverlauf

Altitude vs Time

uPlot chart will show altitude changes over time

Zweizeiliger Elementsatz

1 59610U 24080K 25258.47868303 .00000079 00000-0 12409-4 0 9992
2 59610 43.0006 304.1844 0001109 274.0867 85.9858 15.27577497 77770
Epoch: 15. Sept. 2025 • Age: 11 hours

Aktueller Status

Höhe 484.9 km
Geschwindigkeit 7.63 km/s
Subsatellitenpunkt 34.17°N, 12.07°E
Startdatum 28. Apr. 2024
Alter 1.3 years
Typ internet

Technische Details

Klassifizierung Payload
Masse 730.00 kg
Trockenmasse 700.00 kg
Gesamtmasse 730.00 kg
Länge 0.30 m
Durchmesser 4.10 m
Spannweite 29.00 m
Form Box + pan
Hersteller SPXS
Bus-Typ Starlink V2M
Phasenstatus In Orbit
Besitzer/Staat SPXS/US

Große Konstellationen

Loading constellations...